Mobile, AL

8:20 AM CST on January 19, 2018 (GMT -0600)
Mobile Regional

Weather History for KMOB - September, 2013

Change the Weather History Date:

Tuesday, September 24, 2013

  Actual Average Record
Temperature  
Mean Temperature 78 °F 75 °F  
Max Temperature 86 °F 85 °F 95 °F (2016)
Min Temperature 70 °F 66 °F 50 °F (1990)
Degree Days  
Heating Degree Days 0 0  
Month to date heating degree days 0 0  
Since 1 July heating degree days 0 0  
Cooling Degree Days 13 10  
Month to date cooling degree days 381 320  
Year to date cooling degree days 2211 2247  
Growing Degree Days 28 (Base 50)    
Moisture  
Dew Point 72 °F    
Average Humidity 82    
Maximum Humidity 94    
Minimum Humidity 70    
Precipitation  
Precipitation 1.37 in 0.17 in 4.57 in (1956)
Month to date precipitation 4.57 4.14  
Year to date precipitation 56.27 51.30  
Sea Level Pressure  
Sea Level Pressure 29.85 in    
Wind  
Wind Speed 7 mph (East)    
Max Wind Speed 16 mph    
Max Gust Speed 21 mph    
Visibility 7 miles    
Events Rain , Thunderstorm    
T = Trace of Precipitation, MM = Missing Value Source: NWS Daily Summary

Daily Weather History Graph

Daily Weather History Graph

Search for Another Location

Airport or City:

Trip Planner

Search our weather history database for the weather conditions in past years. The results will help you decide how hot, cold, wet, or windy it might be!

Date:

Astronomy

Sep. 24, 2013 Rise Set
Actual Time 6:42 AM CDT 6:46 PM CDT
Civil Twilight 6:18 AM CDT 7:10 PM CDT
Nautical Twilight 5:50 AM CDT 7:38 PM CDT
Astronomical Twilight 5:22 AM CDT 8:06 PM CDT
Moon 10:24 PM CDT (9/24) 11:36 AM CDT (9/24)
Length of Visible Light 12h 52m
Length of Day
12h 04m
Waning Gibbous, 73% of the Moon is Illuminated
Sep 24
Waning Gibbous
Sep 26
Last Quarter
Oct 4
New
Oct 11
First Quarter
Oct 18
Full

Hourly Weather History & Observations

Time (CDT) Temp. Heat Index Dew Point Humidity Pressure Visibility Wind Dir Wind Speed Gust Speed Precip Events Conditions
12:24 AM 75.2 °F - 71.6 °F 89% 29.88 in 10.0 mi ENE 4.6 mph - N/A   Scattered Clouds
12:32 AM 75.2 °F - 73.4 °F 94% 29.88 in 10.0 mi ENE 5.8 mph - N/A   Mostly Cloudy
12:44 AM 75.2 °F - 73.4 °F 94% 29.88 in 10.0 mi ENE 5.8 mph - N/A   Scattered Clouds
12:56 AM 75.0 °F - 73.0 °F 94% 29.88 in 10.0 mi ENE 5.8 mph - N/A   Scattered Clouds
1:06 AM 75.2 °F - 73.4 °F 94% 29.89 in 10.0 mi ENE 8.1 mph - N/A   Mostly Cloudy
1:56 AM 75.0 °F - 72.0 °F 90% 29.88 in 10.0 mi East 5.8 mph - N/A   Partly Cloudy
2:56 AM 73.9 °F - 72.0 °F 93% 29.88 in 10.0 mi East 3.5 mph - N/A   Mostly Cloudy
3:56 AM 73.9 °F - 72.0 °F 93% 29.87 in 10.0 mi Calm Calm - N/A   Scattered Clouds
4:56 AM 73.9 °F - 72.0 °F 93% 29.87 in 10.0 mi ENE 3.5 mph - N/A   Scattered Clouds
5:56 AM 73.9 °F - 72.0 °F 93% 29.88 in 5.0 mi ENE 4.6 mph - 0.01 in   Mostly Cloudy
6:09 AM 73.4 °F - 71.6 °F 94% 29.89 in 5.0 mi ENE 4.6 mph - N/A   Mostly Cloudy
6:56 AM 73.9 °F - 72.0 °F 93% 29.89 in 5.0 mi East 4.6 mph - 0.00 in   Mostly Cloudy
7:11 AM 73.4 °F - 71.6 °F 94% 29.90 in 3.0 mi ENE 5.8 mph - N/A   Overcast
7:56 AM 75.0 °F - 73.0 °F 94% 29.89 in 3.0 mi East 5.8 mph - N/A   Overcast
8:56 AM 77.0 °F - 73.0 °F 88% 29.90 in 3.0 mi East 9.2 mph - N/A   Overcast
9:56 AM 78.1 °F - 73.9 °F 87% 29.89 in 7.0 mi East 9.2 mph - N/A   Overcast
10:56 AM 79.0 °F - 73.9 °F 84% 29.90 in 3.0 mi SE 8.1 mph - N/A   Haze
11:34 AM 82.4 °F 88.2 °F 73.4 °F 74% 29.90 in 3.0 mi SE 6.9 mph - N/A   Haze
11:56 AM 80.1 °F 85.1 °F 75.0 °F 85% 29.87 in 4.0 mi ESE 11.5 mph - 0.02 in Rain Light Rain
12:01 PM 80.6 °F 86.2 °F 75.2 °F 84% 29.88 in 1.0 mi SSE 13.8 mph 19.6 mph 0.01 in Rain Heavy Rain
12:04 PM 78.8 °F - 75.2 °F 89% 29.88 in 2.0 mi South 9.2 mph 20.7 mph 0.01 in Rain Heavy Rain
12:11 PM 78.8 °F - 75.2 °F 89% 29.88 in 3.0 mi SE 9.2 mph 20.7 mph 0.11 in Rain Heavy Rain
12:18 PM 78.8 °F - 75.2 °F 89% 29.88 in 3.0 mi SSE 8.1 mph - 0.11 in Rain Light Rain
12:36 PM 78.8 °F - 75.2 °F 89% 29.87 in 4.0 mi SE 15.0 mph - 0.11 in   Mostly Cloudy
12:56 PM 80.1 °F 84.5 °F 73.9 °F 81% 29.85 in 7.0 mi SSE 12.7 mph - 0.11 in   Mostly Cloudy
1:56 PM 84.0 °F 91.2 °F 73.9 °F 72% 29.81 in 10.0 mi SE 12.7 mph - N/A   Mostly Cloudy
2:37 PM 84.2 °F 90.9 °F 73.4 °F 70% 29.81 in 10.0 mi ESE 12.7 mph - N/A   Mostly Cloudy
2:56 PM 86.0 °F 95.1 °F 75.0 °F 70% 29.80 in 10.0 mi ESE 12.7 mph - N/A   Mostly Cloudy
3:48 PM 84.2 °F 90.9 °F 73.4 °F 70% 29.80 in 10.0 mi SE 12.7 mph - N/A   Mostly Cloudy
3:56 PM 82.9 °F 89.4 °F 73.9 °F 74% 29.80 in 10.0 mi SE 11.5 mph - N/A   Mostly Cloudy
4:56 PM 80.1 °F 85.1 °F 75.0 °F 85% 29.82 in 7.0 mi SSE 4.6 mph - 0.01 in Rain , Thunderstorm Heavy Thunderstorms and Rain
5:56 PM 73.9 °F - 70.0 °F 87% 29.83 in 7.0 mi North 15.0 mph 20.7 mph 0.07 in Thunderstorm Thunderstorm
6:03 PM 73.4 °F - 69.8 °F 88% 29.84 in 7.0 mi NNE 10.4 mph - 0.00 in Rain , Thunderstorm Light Thunderstorms and Rain
6:53 PM 71.6 °F - 69.8 °F 94% 29.81 in 5.0 mi NNE 12.7 mph - 0.17 in Rain , Thunderstorm Light Thunderstorms and Rain
6:56 PM 72.0 °F - 69.1 °F 91% 29.81 in 5.0 mi NNE 11.5 mph - 0.18 in Rain , Thunderstorm Light Thunderstorms and Rain
7:23 PM 69.8 °F - 68.0 °F 94% 29.82 in 2.0 mi NE 11.5 mph - 0.37 in Rain Heavy Rain
7:29 PM 69.8 °F - 68.0 °F 94% 29.83 in 1.0 mi ENE 13.8 mph - 0.59 in Rain Heavy Rain
7:53 PM 69.8 °F - 68.0 °F 94% 29.82 in 2.0 mi East 9.2 mph - 0.96 in   Mostly Cloudy
7:56 PM 70.0 °F - 68.0 °F 93% 29.81 in 4.0 mi East 10.4 mph - 0.96 in   Mostly Cloudy
8:39 PM 71.6 °F - 68.0 °F 88% 29.82 in 10.0 mi ESE 8.1 mph - N/A   Scattered Clouds
8:56 PM 71.1 °F - 68.0 °F 90% 29.80 in 10.0 mi ESE 5.8 mph - N/A   Scattered Clouds
9:56 PM 71.1 °F - 69.1 °F 93% 29.80 in 10.0 mi SE 4.6 mph - N/A   Partly Cloudy
10:56 PM 71.1 °F - 69.1 °F 93% 29.80 in 10.0 mi NNE 3.5 mph - N/A   Partly Cloudy
11:07 PM 71.6 °F - 69.8 °F 94% 29.81 in 10.0 mi North 4.6 mph - N/A   Mostly Cloudy
11:24 PM 71.6 °F - 69.8 °F 94% 29.81 in 10.0 mi NNW 3.5 mph - N/A   Overcast
11:56 PM 71.1 °F - 69.1 °F 93% 29.80 in 10.0 mi North 4.6 mph - N/A   Overcast